[Iaude] MPEC U86: 2010 QE2 [a=3.37,e=0.74,i=64.7,H=17.3]

mpec at si.edu mpec at si.edu
Fri Oct 28 23:30:34 EDT 2016


M.P.E.C. 2016-U86                                Issued 2016 Oct. 29, 03:26 UT
 
     The Minor Planet Electronic Circulars contain information on unusual
         minor planets and routine data on comets.  They are published
    on behalf of Division F of the International Astronomical Union by the
          Minor Planet Center, Smithsonian Astrophysical Observatory,
                          Cambridge, MA 02138, U.S.A.

             Prepared using the Tamkin Foundation Computer Network

                              MPC at CFA.HARVARD.EDU
            URL http://www.minorplanetcenter.net/    ISSN 1523-6714


                                   2010 QE2
 
                           Revision to MPEC 2010-Q44
 
Additional Observations:
     K10Q02E |C2016 10 26.99910 18 39 08.29 -68 04 43.7          20.4 VuEU086807
     K10Q02E |C2016 10 27.00317 18 39 09.50 -68 04 32.5          20.4 VuEU086807
     K10Q02E |C2016 10 27.00713 18 39 10.82 -68 04 21.8          20.3 VuEU086807
     K10Q02E |C2016 10 29.00827 18 49 40.30 -66 33 23.4          20.8 VuEU086807
     K10Q02E |C2016 10 29.01326 18 49 41.81 -66 33 09.4          20.8 VuEU086807
     K10Q02E |C2016 10 29.01568 18 49 42.54 -66 33 02.5          20.8 VuEU086807
 
Observer details:
807 Cerro Tololo.  Observers T. Linder, R. Holmes.  0.61-m f/6.5 astrograph
    + CCD.
 
First and last observations above in comparison with prediction:
Residuals in seconds of arc, reference and Delta-T
161026 807 62.2- 85.1-    161029 807 60.0- 94.7-    MPO196136   +0.086 day
 
Orbital elements:
2010 QE2                                                 Earth MOID = 0.0564 AU
Epoch 2016 July 31.0 TT = JDT 2457600.5                 MPC
M 334.07902              (2000.0)            P               Q
n   0.15901459     Peri.   32.87399     +0.83125601     -0.55499023
a   3.3742563      Node     2.00315     +0.04407468     +0.00911353
e   0.7389590      Incl.   64.73743     +0.55413975     +0.83180694
P   6.20           H   17.3           G   0.15           U   0
Residuals in seconds of arc
100825 C51  0.1-  0.4+    100919 844  0.3+  0.4-    110102 H36  0.4-  0.1+
100825 C51  0.2-  0.7+    100919 844  0.2-  0.5-    110130 H01  0.2-  0.1+
100825 C51  0.3-  0.3+    100924 844 (3.6-  4.2+)   110130 H01  0.1-  0.1+
100825 C51  0.2-  0.0     100924 844 (3.5-  3.9+)   110130 H01  0.1-  0.1+
100825 C51  0.2-  0.5+    100924 844 (3.1-  3.8+)   110130 H01  0.1-  0.2+
100825 C51  0.0   0.1+    100924 844 (3.5-  3.1+)   110131 C51 (8.2-  1.3-)
100826 C51  0.2+  0.2+    100924 844 (3.6-  4.2+)   110131 C51 (1.2+  2.4-)
100826 C51  0.3-  0.5+    100924 844 (3.2-  4.2+)   110131 C51 (1.7+  0.1+)
100826 C51  0.1+  0.3+    100924 844 (2.5-  2.9+)   110131 C51  0.2+  0.0
100826 C51  0.1-  0.1-    100928 E12  0.4+  0.3-    110131 C51  0.3+  0.4+
100826 C51  0.4-  0.2+    100928 E12  0.0   0.4-    110201 C51  0.3-  0.6+
100826 C51  0.2+  0.0     100928 E12  0.2-  0.2+    110201 300 (2.1+  0.0 )
100827 C51  0.2+  0.0     100928 E12  0.1-  0.1+    110201 300 (1.8+  0.3-)
100827 C51  0.1-  0.4-    100928 E12  0.1-  0.0     110201 300 (2.2+  1.3-)
100827 C51  0.2-  0.1-    100929 D90  0.0   0.1+    110225 H01  0.1+  0.0
100827 C51  0.2+  0.2+    100929 D90  0.2+  0.3+    110225 H01  0.0   0.1-
100827 C51  0.5-  0.3-    100929 D90  0.4+  0.6+    110225 H01  0.0   0.1+
100827 C51  0.1-  0.0     100930 E12  0.0   0.1+    110225 H01  0.0   0.1+
100827 C51  0.2-  0.1+    100930 E12  0.2-  0.1+    110301 H01  0.2-  0.0
100828 C51  0.6-  0.2+    100930 E12  0.1+  0.3+    110301 H01  0.1-  0.1-
100828 C51  0.1-  0.2+    100930 E12  0.0   0.1+    110301 H01  0.1-  0.0
100828 C51  0.0   0.2+    101004 E12  0.3-  0.4-    110301 H01  0.0   0.1-
100829 C51  0.2-  0.3+    101004 E12  0.1+  0.1+    110301 711  0.1-  0.0
100830 E12  0.1-  0.2+    101004 E12  0.1-  0.1-    110301 711  1.0+  0.0
100830 E12  0.1-  0.6+    101004 E12  0.3-  0.0     110304 H01  0.0   0.1+
100831 E12  0.0   0.3+    101004 E12  0.1-  0.1+    110304 H01  0.1-  0.2+
100831 E12  0.4+  0.1-    101029 H06 (0.3-  2.6+)   110304 H01  0.1+  0.1+
100912 D90  0.3+  0.3-    101029 H06 (0.1-  2.3+)   110304 H01  0.0   0.1+
100912 D90  0.6+  0.1+    101029 H06 (0.3+  1.9+)   110306 H01  0.0   0.3+
100917 844  0.1-  0.4-    101030 H21  0.4-  0.0     110306 H01  0.0   0.3+
100917 844  0.2+  0.0     101030 H21  0.0   0.0     110306 H01  0.0   0.1+
100917 844  0.2+  1.0-    101030 H21  0.0   0.4+    110306 H01  0.0   0.2+
100917 844  0.2+  0.2+    101030 448  0.4+  1.0-    110309 F65  0.1-  0.0
100917 844  0.1-  0.0     101030 448  0.2-  1.0-    110309 F65  0.1+  0.1+
100917 844  0.1+  0.2-    101030 448  0.1-  0.3+    110309 F65  0.1-  0.0
100917 844  0.2-  0.2-    101030 G96  0.2-  0.2-    110309 F65  0.0   0.0
100917 844  0.1+  0.5+    101030 G96  0.0   0.1-    110309 F65  0.1-  0.1+
100917 844  0.5+  0.0     101030 G96  0.2-  0.2-    110310 H01  0.1+  0.1+
100917 844  0.0   0.1-    101030 G96  0.1+  0.2-    110310 H01  0.0   0.1+
100917 844  0.3+  0.0     101103 204  0.2-  0.1-    110310 H01  0.1+  0.1+
100917 844  0.2-  0.5-    101103 204  0.2+  0.3-    110310 H01  0.1+  0.1+
100917 844  0.4-  0.2+    101108 448  0.4+  0.5-    110414 691 (1.3-  1.9-)
100917 844  0.4-  0.3-    101108 448  0.7+  0.2-    110414 691  0.5-  0.0
100917 844  0.4-  0.4-    101108 448  0.7-  0.9-    110414 691  0.7-  0.7-
100917 844  0.3-  0.0     101110 291  0.0   0.4+    161026 807  0.0   0.1+
100917 844  0.2+  0.3+    101110 291  0.1+  0.3+    161027 807  0.6-  0.3+
100917 844  0.6-  0.3+    101110 291  0.1-  0.4+    161027 807  0.4-  0.3+
100917 844  0.2+  0.4-    101126 448  0.4+  0.3-    161029 807  0.1-  0.1-
100917 844  0.2-  0.2-    101126 448  0.9-  0.8+    161029 807  0.0   0.1-
100919 844  0.8-  0.2-    101126 448  1.5-  0.1-    161029 807  0.1+  0.0
100919 844 (0.2+  2.2-)   110102 H36  0.3-  0.8+
100919 844  0.4-  0.5-    110102 H36  0.1-  0.1+

Ephemeris:
2010 QE2                 a,e,i = 3.37, 0.74, 65                  q = 0.8808
Date    TT    R. A. (2000) Decl.     Delta      r     Elong.  Phase     V
2016 09 29    13 44 50.5 -79 58 59   1.5879  1.6959    78.2    35.3    20.9
...
2016 10 14    17 01 56.2 -76 12 24   1.4746  1.5424    74.4    38.5    20.6
...
2016 10 22    18 08 36.5 -71 35 24   1.4218  1.4603    71.9    40.4    20.5
...
2016 10 28    18 44 30.1 -67 19 40   1.3869  1.3989    69.8    41.8    20.4
2016 10 29    18 49 38.3 -66 33 46   1.3816  1.3887    69.4    42.0    20.4
2016 10 30    18 54 34.3 -65 47 01   1.3764  1.3786    69.0    42.3    20.3
...
2016 11 05    19 20 35.2 -60 50 09   1.3481  1.3180    66.6    43.6    20.2
...
2016 11 13    19 48 07.4 -53 37 08   1.3190  1.2389    63.0    45.4    20.1
...
2016 11 28    20 26 21.9 -38 45 26   1.2926  1.0997    55.8    47.9    19.9

A. U. Tomatic                (C) Copyright 2016 MPC           M.P.E.C. 2016-U86




More information about the Iaude mailing list